This demonstration page uses our WeatherBlox Daily Observations layout. Learn more.

Left ArrowRight Arrow

36.17497, -115.13722

Hourly Observations for January 14, 2017

Temp ( °F °C ) Dew Point ( °F °C ) Humidity (%) Winds ( mph kmh ) Pressure ( in mb ) Visibility ( mi km ) Precip ( " mm )
12:53 am 00:53 Clear 51 10.6 37 2.8 59 59 NNW 17 28 30.18 1022 10 16 N/A
1:53 am 01:53 Partly Cloudy 50 10 36 2.2 59 59 N 15 24 30.18 1022 10 16 N/A
2:53 am 02:53 Mostly Clear 50 10 34 1.1 54 54 NNW 21 33 30.18 1022 10 16 N/A
3:53 am 03:53 Clear 50 10 33 0.6 52 52 N 15 24 30.18 1022 10 16 N/A
4:53 am 04:53 Clear 50 10 33 0.6 52 52 N 18 30 30.17 1022 10 16 N/A
5:53 am 05:53 Mostly Clear 49 9.4 32 undefined 52 52 NNW 15 24 30.18 1022 10 16 N/A
6:53 am 06:53 Cloudy 49 9.4 32 undefined 52 52 N 16 26 30.19 1022 10 16 N/A
7:53 am 07:53 Partly Cloudy 50 10 32 undefined 50 50 NNW 20 31 30.19 1023 10 16 N/A
8:53 am 08:53 Mostly Cloudy 51 10.6 32 undefined 48 48 NNW 18 30 30.22 1023 10 16 N/A
9:53 am 09:53 Mostly Cloudy 53 11.7 32 undefined 45 45 N 21 33 30.21 1023 10 16 N/A
10:53 am 10:53 Cloudy 53 11.7 32 undefined 45 45 N 16 26 30.18 1022 10 16 N/A
11:53 am 11:53 Cloudy 54 12.2 33 0.6 45 45 N 17 28 30.15 1021 10 16 N/A
12:53 pm 12:53 Mostly Cloudy 55 12.8 33 0.6 44 44 N 14 22 30.12 1020 10 16 N/A
1:53 pm 13:53 Cloudy 58 14.4 34 1.1 41 41 N 10 17 30.10 1019 10 16 N/A
2:53 pm 14:53 Cloudy 57 13.9 34 1.1 42 42 N 10 17 30.09 1019 10 16 N/A
3:53 pm 15:53 Cloudy 57 13.9 35 1.7 44 44 N 7 11 30.08 1019 10 16 N/A
4:53 pm 16:53 Cloudy 56 13.3 38 3.3 51 51 NNW 8 13 30.07 1018 10 16 N/A
5:53 pm 17:53 Cloudy 55 12.8 40 4.4 57 57 N 6 9 30.09 1019 10 16 N/A
6:53 pm 18:53 Cloudy 55 12.8 38 3.3 53 53 N 9 15 30.09 1019 10 16 N/A
7:53 pm 19:53 Cloudy 54 12.2 37 2.8 53 53 N 12 19 30.08 1019 10 16 N/A
8:53 pm 20:53 Mostly Cloudy 54 12.2 35 1.7 49 49 N 14 22 30.06 1018 10 16 N/A
9:53 pm 21:53 Mostly Cloudy 52 11.1 35 1.7 53 53 N 12 19 30.07 1018 10 16 N/A
10:53 pm 22:53 Cloudy 51 10.6 35 1.7 54 54 NNE 13 20 30.07 1018 10 16 N/A
11:53 pm 23:53 Cloudy 50 10 34 1.1 54 54 N 13 20 30.06 1018 10 16 N/A

Powered by AerisWeather